Flag for U.S.A. Weather past 2 weeks in Oklahoma City, Oklahoma, U.S.A.

28 °F

Passing clouds.

Feels Like: 24 °F
Forecast: 27 / 48 °F
Wind: 3 mph from Southwest

Location: Will Rogers World Airport

Current Time: Dec 1, 2015 at 2:01:53 AM

Latest Report: Dec 1, 2015 at 12:52 AM

Visibility: 10 mi

Pressure: 30.06 "Hg

Humidity: 100%

Dew point: 28 °F

Location of Oklahoma CityLocation

Historic Weather in Oklahoma City — Graph


Oklahoma City temperature yesterday

Maximum temperature yesterday: 42 °F (at 3:52 PM)
Minimum temperature yesterday: 30 °F (at 10:52 PM)
Average temperature yesterday: 36 °F

Past Weeks' High & Low Weather Summary

High70 °F (Nov 17, 12:52 AM)100% (Nov 15, 11:52 PM)30.43 "Hg (Nov 15, 11:52 PM)
Low23 °F (Nov 22, 3:52 AM)23% (Nov 23, 12:52 PM)29.36 "Hg (Nov 17, 2:52 PM)
Average47 °F77%30.04 "Hg
* Reported Nov 15 11:52 PM — Nov 30 11:52 PM, Oklahoma City, Weather by CustomWeather, © 2015

Note: Actual official high and low records may vary slightly from our data, if they occured in-between our weather recording intervals... More about our weather records


Oklahoma City weather history for previous 24 hours

Time TempWeatherWind HumidityBarometerVisibility
11:52 PM
Mon, Nov 30
30 °FPassing clouds.3 mph96%30.06 "Hg9 mi
10:52 PM30 °FPassing clouds.3 mph96%30.07 "Hg10 mi
9:52 PM32 °FPassing clouds.3 mph96%30.09 "Hg10 mi
8:52 PM34 °FPassing clouds.3 mph88%30.09 "Hg10 mi
7:52 PM35 °FPassing clouds.5 mph85%30.09 "Hg10 mi
6:52 PM38 °FOvercast.10 mph79%30.08 "Hg10 mi
5:52 PM39 °FOvercast.16 mph79%30.06 "Hg10 mi
4:52 PM41 °FOvercast.14 mph80%30.04 "Hg10 mi
3:52 PM42 °FBroken clouds.12 mph79%30.01 "Hg10 mi
2:52 PM40 °FOvercast.13 mph86%30.00 "Hg10 mi
1:52 PM39 °FPartly sunny.13 mph89%30.00 "Hg10 mi
12:52 PM39 °FLow clouds.12 mph89%30.03 "Hg10 mi
11:52 AM39 °FFog.12 mph93%30.05 "Hg5 mi
10:52 AM38 °FDrizzle. Fog.9 mph97%30.07 "Hg2 mi
9:52 AM37 °FFog.3 mph100%30.06 "Hg2 mi
8:52 AM36 °FLow clouds.6 mph100%30.06 "Hg10 mi
7:52 AM35 °FLow clouds.3 mph100%30.03 "Hg3 mi
6:52 AM35 °FDrizzle. Fog.7 mph100%30.04 "Hg3 mi
5:52 AM35 °FDrizzle. Fog.10 mph100%30.04 "Hg3 mi
4:52 AM35 °FMostly cloudy.8 mph100%30.03 "Hg10 mi
3:52 AM35 °FDrizzle. Fog.9 mph100%30.04 "Hg5 mi
2:52 AM36 °FDrizzle. Fog.8 mph97%30.05 "Hg3 mi
Weather by CustomWeather, © 2015

See weather overviewHow to use our weather pages